Cook, MN

12:09 AM CDT on July 21, 2017 (GMT -0500)
Cook Municipal

Weather History for KCQM - September, 2013

Change the Weather History Date:

Monday, September 9, 2013

  Actual Average Record
Temperature  
Mean Temperature 60 °F -  
Max Temperature 64 °F 67 °F 87 °F (2011)
Min Temperature 57 °F 47 °F 26 °F (2006)
Degree Days  
Heating Degree Days 4    
Growing Degree Days 10 (Base 50)    
Moisture  
Dew Point 61 °F    
Average Humidity 96    
Maximum Humidity 100    
Minimum Humidity 88    
Precipitation  
Precipitation 0.05 in - - ()
Sea Level Pressure  
Sea Level Pressure 29.77 in    
Wind  
Wind Speed 1 mph (SE)    
Max Wind Speed 7 mph    
Max Gust Speed -    
Visibility 7 miles    
Events Rain , Thunderstorm    
Averages and records for this station are not official NWS values.
T = Trace of Precipitation, MM = Missing Value Source: NWS Daily Summary

Daily Weather History Graph

Daily Weather History Graph

Search for Another Location

Airport or City:

Trip Planner

Search our weather history database for the weather conditions in past years. The results will help you decide how hot, cold, wet, or windy it might be!

Date:

Astronomy

Sep. 09, 2013 Rise Set
Actual Time 6:40 AM CDT 7:34 PM CDT
Civil Twilight 6:08 AM CDT 8:06 PM CDT
Nautical Twilight 5:31 AM CDT 8:43 PM CDT
Astronomical Twilight 4:51 AM CDT 9:23 PM CDT
Moon 11:25 AM CDT (9/9) 9:27 PM CDT (9/9)
Length of Visible Light 13h 57m
Length of Day
12h 54m
Waxing Crescent, 19% of the Moon is Illuminated
Sep 9
Waxing Crescent
Sep 12
First Quarter
Sep 19
Full
Sep 26
Last Quarter
Oct 4
New

Hourly Weather History & Observations

Time (CDT) Temp. Dew Point Humidity Pressure Visibility Wind Dir Wind Speed Gust Speed Precip Events Conditions
12:17 AM 57.2 °F 55.4 °F 94% 29.92 in 10.0 mi Calm Calm - N/A   Overcast
12:36 AM 57.2 °F 55.4 °F 94% 29.92 in 10.0 mi Calm Calm - N/A   Overcast
12:56 AM 57.2 °F 55.4 °F 94% 29.91 in 10.0 mi Calm Calm - N/A   Overcast
1:17 AM 57.2 °F 55.4 °F 94% 29.91 in 10.0 mi Calm Calm - N/A   Overcast
1:36 AM 57.2 °F 55.4 °F 94% 29.90 in 10.0 mi SSE 3.5 mph - N/A   Overcast
1:56 AM 57.2 °F 55.4 °F 94% 29.89 in 10.0 mi Calm Calm - N/A   Overcast
2:16 AM 57.2 °F 55.4 °F 94% 29.89 in 10.0 mi Calm Calm - N/A   Overcast
2:36 AM 59.0 °F 55.4 °F 88% 29.89 in 10.0 mi Calm Calm - N/A   Overcast
2:57 AM 59.0 °F 55.4 °F 88% 29.88 in 10.0 mi Calm Calm - N/A   Overcast
3:16 AM 59.0 °F 55.4 °F 88% 29.87 in 10.0 mi Calm Calm - N/A   Overcast
3:36 AM 59.0 °F 55.4 °F 88% 29.86 in 10.0 mi Calm Calm - N/A   Overcast
3:57 AM 59.0 °F 57.2 °F 94% 29.85 in 10.0 mi Calm Calm - N/A   Overcast
4:16 AM 57.2 °F 57.2 °F 100% 29.84 in 10.0 mi Calm Calm - N/A   Overcast
4:37 AM 57.2 °F 57.2 °F 100% 29.84 in 10.0 mi Calm Calm - N/A   Overcast
4:57 AM 59.0 °F 57.2 °F 94% 29.86 in 10.0 mi Calm Calm - N/A   Overcast
5:16 AM 59.0 °F 57.2 °F 94% 29.85 in 10.0 mi Calm Calm - N/A   Overcast
5:37 AM 59.0 °F 57.2 °F 94% 29.83 in 10.0 mi Calm Calm - N/A   Overcast
5:57 AM 59.0 °F 57.2 °F 94% 29.83 in 10.0 mi Calm Calm - N/A   Overcast
6:16 AM 59.0 °F 57.2 °F 94% 29.84 in 10.0 mi Calm Calm - N/A   Overcast
6:37 AM 59.0 °F 57.2 °F 94% 29.85 in 10.0 mi Calm Calm - N/A   Overcast
6:57 AM 59.0 °F 57.2 °F 94% 29.84 in 10.0 mi Calm Calm - N/A   Overcast
7:16 AM 59.0 °F 57.2 °F 94% 29.84 in 10.0 mi Calm Calm - N/A   Overcast
7:37 AM 59.0 °F 57.2 °F 94% 29.85 in 10.0 mi Calm Calm - N/A   Overcast
7:57 AM 59.0 °F 57.2 °F 94% 29.85 in 10.0 mi Calm Calm - N/A   Overcast
8:17 AM 60.8 °F 57.2 °F 88% 29.84 in 7.0 mi Calm Calm - N/A   Overcast
8:36 AM 60.8 °F 59.0 °F 94% 29.83 in 7.0 mi Calm Calm - N/A   Light Drizzle
8:50 AM 60.8 °F 59.0 °F 94% 29.82 in 4.0 mi East 3.5 mph - N/A Rain Light Rain
9:16 AM 60.8 °F 60.8 °F 100% 29.81 in 0.8 mi ESE 3.5 mph - 0.02 in Rain Heavy Rain
9:37 AM 60.8 °F 60.8 °F 100% 29.75 in 2.5 mi ESE 6.9 mph - 0.03 in Rain Rain
9:57 AM 60.8 °F 60.8 °F 100% 29.76 in 2.5 mi Calm Calm - N/A Rain Rain
10:17 AM 60.8 °F 60.8 °F 100% 29.74 in 2.5 mi East 3.5 mph - 0.01 in Rain Light Rain
10:36 AM 60.8 °F 60.8 °F 100% 29.75 in 7.0 mi SE 4.6 mph - 0.01 in Rain Light Rain
10:57 AM 60.8 °F 60.8 °F 100% 29.70 in 4.0 mi East 3.5 mph - N/A Rain Rain
11:16 AM 62.6 °F 60.8 °F 94% 29.74 in 7.0 mi SE 3.5 mph - N/A Rain Light Rain
11:36 AM 62.6 °F 62.6 °F 100% 29.73 in 10.0 mi SE 4.6 mph - N/A Rain Light Rain
11:57 AM 62.6 °F 62.6 °F 100% 29.74 in 10.0 mi Calm Calm - N/A   Overcast
12:16 PM 64.4 °F 62.6 °F 94% 29.75 in 10.0 mi SSE 4.6 mph - N/A   Overcast
12:36 PM 64.4 °F 62.6 °F 94% 29.75 in 10.0 mi Calm Calm - N/A   Overcast
12:57 PM 64.4 °F 62.6 °F 94% 29.75 in 10.0 mi SSE 4.6 mph - N/A   Overcast
1:16 PM 64.4 °F 62.6 °F 94% 29.75 in 10.0 mi SSE 4.6 mph - N/A   Overcast
1:36 PM 64.4 °F 62.6 °F 94% 29.74 in 10.0 mi SSE 5.8 mph - N/A   Overcast
1:57 PM 64.4 °F 62.6 °F 94% 29.73 in 10.0 mi SE 4.6 mph - N/A   Overcast
2:16 PM 64.4 °F 62.6 °F 94% 29.73 in 10.0 mi SE 5.8 mph - N/A   Overcast
2:37 PM 64.4 °F 62.6 °F 94% 29.72 in 4.0 mi ESE 3.5 mph - N/A Rain , Thunderstorm Light Thunderstorms and Rain
2:57 PM 64.4 °F 62.6 °F 94% 29.71 in 4.0 mi Calm Calm - N/A Thunderstorm Overcast
3:16 PM 64.4 °F 62.6 °F 94% 29.70 in 7.0 mi Calm Calm - N/A   Overcast
3:37 PM 64.4 °F 62.6 °F 94% 29.70 in 10.0 mi Calm Calm - N/A   Overcast
3:57 PM 64.4 °F 62.6 °F 94% 29.70 in 3.0 mi Calm Calm - N/A   Drizzle
4:16 PM 64.4 °F 62.6 °F 94% 29.70 in 2.5 mi Calm Calm - 0.01 in   Drizzle
4:36 PM 64.4 °F 62.6 °F 94% 29.70 in 2.5 mi Calm Calm - 0.01 in   Light Drizzle
4:57 PM 64.4 °F 64.4 °F 100% 29.69 in 3.0 mi Calm Calm - N/A   Overcast
5:16 PM 64.4 °F 64.4 °F 100% 29.69 in 7.0 mi Calm Calm - N/A   Overcast
5:36 PM 64.4 °F 64.4 °F 100% 29.69 in 10.0 mi Calm Calm - N/A   Overcast
5:57 PM 64.4 °F 62.6 °F 94% 29.70 in 10.0 mi Calm Calm - N/A   Overcast
6:16 PM 64.4 °F 64.4 °F 100% 29.70 in 10.0 mi Calm Calm - N/A   Overcast
6:37 PM 64.4 °F 64.4 °F 100% 29.70 in 10.0 mi Calm Calm - N/A   Overcast
6:56 PM 64.4 °F 64.4 °F 100% 29.70 in 10.0 mi Calm Calm - N/A   Overcast
7:16 PM 64.4 °F 64.4 °F 100% 29.70 in 5.0 mi Calm Calm - N/A   Overcast
7:37 PM 64.4 °F 64.4 °F 100% 29.71 in 7.0 mi Calm Calm - N/A   Overcast
7:56 PM 64.4 °F 64.4 °F 100% 29.71 in 5.0 mi Calm Calm - N/A   Overcast
8:17 PM 64.4 °F 64.4 °F 100% 29.72 in 5.0 mi Calm Calm - N/A Rain Rain
8:36 PM 64.4 °F 64.4 °F 100% 29.72 in 7.0 mi Calm Calm - N/A   Overcast
8:56 PM 64.4 °F 64.4 °F 100% 29.72 in 3.0 mi Calm Calm - N/A   Overcast
9:17 PM 64.4 °F 64.4 °F 100% 29.71 in 1.5 mi Calm Calm - N/A   Overcast
9:36 PM 64.4 °F 64.4 °F 100% 29.71 in 1.2 mi Calm Calm - N/A   Overcast
9:56 PM 64.4 °F 64.4 °F 100% 29.71 in 1.8 mi Calm Calm - N/A   Overcast
10:17 PM 64.4 °F 64.4 °F 100% 29.71 in 2.0 mi Calm Calm - N/A   Overcast
10:36 PM 64.4 °F 64.4 °F 100% 29.71 in 3.0 mi Calm Calm - N/A   Overcast
10:57 PM 64.4 °F 64.4 °F 100% 29.71 in 3.0 mi Calm Calm - N/A   Overcast
11:17 PM 64.4 °F 64.4 °F 100% 29.71 in 3.0 mi Calm Calm - N/A   Overcast
11:36 PM 64.4 °F 64.4 °F 100% 29.71 in 3.0 mi Calm Calm - N/A Rain Rain
11:57 PM 64.4 °F 64.4 °F 100% 29.71 in 2.0 mi Calm Calm - N/A   Heavy Drizzle